Location: Dampvalley
(47.9094°N, 6.1967°E)
Time: 18:32:55
(UTC+00:00)

Cosmos 1484 Rocket - Pass Details

Date: 05 March 2021
Orbit: 505 x 558 km, 97.4° (Epoch: 15 April)

Event Time Altitude Azimuth Distance (km) Brightness Sun altitude
Rises 05:06:17 0° 1° (N) 2,627 6.4 -11.2°
Reaches altitude 10° 05:08:40 10° 347° (NNW) 1,733 5.3 -10.8°
Maximum altitude 05:11:38 23° 294° (WNW) 1,112 3.9 -10.3°
Enters shadow 05:14:24 11° 242° (WSW) 1,654 4.7 -9.8°
